Regional Weather Roundup
Issued by NWS

Home | Current Version | Previous Version | Text Only | Print | Product List | Glossary Off
Versions: 1 2 3 4 5 6 7 8 9 10 11 12 13 14 15 16 17 18 19 20 21 22 23 24 25 26 27 28 29 30 31 32 33 34 35 36 37 38 39 40 41 42 43 44 45 46 47 48 49 50

000
ASUS43 KLOT 230506
RWRIL

ILLINOIS REGIONAL WEATHER ROUNDUP
NATIONAL WEATHER SERVICE CHICAGO/ROMEOVILLE IL
1200 AM CDT WED JUL 23 2014

NOTE: "FAIR" INDICATES FEW OR NO CLOUDS BELOW 12,000 FEET WITH NO
SIGNIFICANT WEATHER AND/OR OBSTRUCTIONS TO VISIBILITY.

* THESE STATIONS ARE NOT UNDER NWS QUALITY CONTROL. THEY ALSO MAY NOT
  REPORT WEATHER SUCH AS PRECIPITATION OR FOG.

ILZ001-002-007-009-015-016-024-230600-
NORTHWEST ILLINOIS

CITY           SKY/WX    TMP DP  RH WIND       PRES   REMARKS
MOLINE         CLEAR     80  69  69 N7        30.02R HX  83
STERLING*      MOCLDY    79  70  73 N6        30.01R HX  81
SAVANNA*       CLEAR     78  67  69 N12       30.02R
$$

ILZ003-004-008-010-011-017-018-230600-
NORTH CENTRAL ILLINOIS

CITY           SKY/WX    TMP DP  RH WIND       PRES   REMARKS
ROCKFORD       PTCLDY    79  67  66 N18       30.02R HX  81
FREEPORT*      CLEAR     73  68  84 N7        30.05R
ROCHELLE*      MOCLDY    78  69  74 N8        30.01R HX  80
DE KALB*       CLOUDY    78  70  77 N10G20    30.02R HX  80
PERU*          CLOUDY    78  74  87 W8        29.99R HX  81
$$

ILZ005-006-012>014-019>023-230600-
NORTHEAST ILLINOIS

CITY           SKY/WX    TMP DP  RH WIND       PRES   REMARKS
CHICAGO-OHARE  CLOUDY    77  67  71 N20G28    30.00R
CHICAGO-MIDWAY TSTM      78  74  87 NE21G28   29.98R FOG     HX  81
AURORA         CLOUDY    78  74  87 N5        29.99R FOG     HX  81
LANSING*       CLEAR     78  73  83 SW5       29.97S HX  80
JOLIET*        PTCLDY    78  73  83 W6        29.99R HX  81
WAUKEGAN       CLOUDY    74  64  71 N14G30    30.00R
DUPAGE AIRPORT CLOUDY    79  74  84 N9        29.99R HAZE    HX  82
KANKAKEE*      MOCLDY    76  74  93 S6        29.99S
WHEELING       CLOUDY    78  66  66 NE20G32   30.03R HX  80
MORRIS*        PTCLDY    77  75  93 W5        29.98R THUNDER
ROMEOVILLE*    MOCLDY    78  75  89 NW9       30.00R HX  81
NORTHERLY ISL    N/A     72  69  90 N15         N/A
$$

LMZ740>746-230600-
SOUTHERN LAKE MICHIGAN

STATION/POSITION SKY/WX   TEMP    WIND        PRES    VSBY  WAVE
                          AIR SEA DIR/SP/G                  HT/PER
                          (F)     (DEG/KT/KT) (MB)    (MI)  (FT/S)
SOUTHERN BUOY              68 65  360/ 23/ 29 1015.1R         2/ 3
WAUKEGAN HARBOR            70      20/ 26/ 30 1015.9R
HARRISON CRIB              82     230/ 16/ 20   N/A
BURNHAM HARBOR             69      50/ 19       N/A
CALUMET HARBOR             81     210/  7/  8 1013.0R
BURNS HARBOR               80     210/ 10/ 14 1014.9S
MICHIGAN CITY              79     170/ 10/ 12   N/A
$$

ILZ025>027-034>036-040-047-049-050-058-095>099-230600-
WEST-CENTRAL ILLINOIS

CITY           SKY/WX    TMP DP  RH WIND       PRES   REMARKS
QUINCY         MOCLDY    79  76  90 NW7       30.02R HX  83
GALESBURG*     PTCLDY    76  74  96 CALM      30.02R FOG
MACOMB*        MOCLDY    75  75  99 NW6       30.04R FOG
JACKSONVILLE*  MOCLDY    78  76  93 CALM      30.02R FOG     HX  81
PITTSFIELD*    CLOUDY    79  76  90 CALM      30.02R FOG     HX  83
$$

ILZ028>032-037-038-041>044-048-051>054-059>061-230600-
CENTRAL ILLINOIS

CITY           SKY/WX    TMP DP  RH WIND       PRES   REMARKS
PONTIAC        CLEAR     79  75  89 SW5       29.98F FOG     HX  82
BLOOMINGTON    PTCLDY    77  72  84 SW6       30.02S
PEORIA         MOCLDY    80  74  81 SW5       30.00S HX  85
LACON*         MOCLDY    78  74  88 SW3       29.98S HX  80
LINCOLN*       MOCLDY    78  71  79 CALM      29.97S HX  81
SPRINGFIELD    MOCLDY    80  72  76 SW5       30.01S HX  84
TAYLORVILLE    MOCLDY    73  68  83 S5        30.01F
$$

ILZ033-039-045-046-055>057-062-063-230600-
EAST-CENTRAL ILLINOIS

CITY           SKY/WX    TMP DP  RH WIND       PRES   REMARKS
CHAMPAIGN      MOCLDY    75  70  84 SW8       30.01F
RANTOUL*       MOCLDY    76  71  85 SW3       30.02S
MATTOON        PTCLDY    76  68  76 S6        30.01F
PARIS*         CLEAR     72  68  89 SW5       30.03S
$$

ILZ079-100>102-230600-
SOUTHWEST ILLINOIS

CITY           SKY/WX    TMP DP  RH WIND       PRES   REMARKS
ALTON          MOCLDY    78  73  83 S6        30.01F HX  81
CAHOKIA*       MOCLDY    79  70  74 SE6       30.01F HX  82
SPARTA*        MOCLDY    77  70  78 S6        30.04F
$$

ILZ064>066-069>071-074>076-080>082-084>086-088>090-092>094-230600-
SOUTH-CENTRAL ILLINOIS

CITY           SKY/WX    TMP DP  RH WIND       PRES   REMARKS
CARBONDALE     PTCLDY    73  69  87 W3        30.04S
CAIRO*         CLEAR     74  69  86 CALM      30.05S FOG
MARION         PTCLDY    73  70  88 CALM      30.04S
MT. VERNON     PTCLDY    72  64  78 CALM      30.06R
CENTRALIA*     MOCLDY    71  67  85 S5        30.03F
SALEM*         PTCLDY    76  71  83 S5        30.04F
METROPOLIS*    CLEAR     72  70  94 CALM      30.04F FOG
$$

ILZ067-068-072-073-078-083-087-091-230600-
SOUTHEAST ILLINOIS

CITY           SKY/WX    TMP DP  RH WIND       PRES   REMARKS
FLORA*         CLEAR     71  68  90 CALM      30.04F
FAIRFIELD*     FOG       72  72 100 CALM      30.05R VSB 1
HARRISBURG*    CLEAR     70  70 100 CALM      30.05S FOG
ROBINSON*      PTCLDY    73  70  92 CALM      30.05R
CARMI*         CLEAR     72  70  95 CALM      30.03R FOG
$$

ABBREVIATIONS USED IN REMARKS
   TC - TEMPERATURE IN CELSIUS
  WCI - WIND CHILL INDEX
   HX - HEAT INDEX
  VSB - VISIBILITY
$$



USA.gov is the U.S. government's official web portal to all federal, state and local government web resources and services.